Tracking 19562 objects as of 24-Mar-2019
HD Live streaming from Space Station
objects crossing your sky now

COSMOS 795

Track COSMOS 795 now!
10-day predictions
COSMOS 795 is classified as:


NORAD ID: 8611
Int'l Code: 1976-008E
Perigee: 1,474.3 km
Apogee: 1,504.6 km
Inclination: 74.1 °
Period: 115.6 minutes
Semi major axis: 7860 km
RCS: 0.6779 m2 (medium)
Launch date: January 28, 1976
Source: Commonwealth of Independent States (former USSR) (CIS)
Launch site: PLESETSK MISSILE AND SPACE COMPLEX (PKMTR)
aabbcc
Your satellite tracking list
Your tracking list is empty




NASA's NSSDC Master Catalog

Two Line Element Set (TLE):
1  8611U 76008E   19082.93257782 -.00000032 +00000-0 -11493-3 0  9998
2  8611 074.0535 073.1858 0019319 032.5240 327.6994 12.45753268962294
Source of the keplerian elements: AFSPC